DW9349 Weather Reports


time (UTC)temp
C
wind
direction
speed
KPH
gust
KPH
rain 1hr
cm
rain 24hr
cm
rain mn
cm
humidity
%
barometer
mb
20260504192213 26 0 0.0 0.0 0.00 0.00 0.00 100 1014.0
20260504191505 26 0 0.0 0.0 0.00 0.00 0.00 100 1013.9
20260504191005 26 0 0.0 0.0 0.00 0.00 0.00 100 1014.0
20260504190504 27 0 0.0 0.0 0.00 0.00 0.00 100 1014.0
20260504190004 27 0 0.0 0.0 0.00 0.00 0.00 100 1014.2
20260504185504 27 0 0.0 0.0 0.00 0.00 0.00 100 1014.1
20260504185004 27 0 0.0 0.0 0.00 0.00 0.00 100 1014.1
20260504184505 27 0 0.0 0.0 0.00 0.00 0.00 100 1014.1
20260504184004 26 0 0.0 0.0 0.00 0.00 0.00 100 1014.2
20260504183504 26 0 0.0 0.0 0.00 0.00 0.00 100 1014.3
20260504183003 26 0 0.0 0.0 0.00 0.00 0.00 100 1014.3
20260504182716 26 0 0.0 0.0 0.00 0.00 0.00 100 1014.3
20260504182004 27 0 0.0 0.0 0.00 0.00 0.00 100 1014.4
20260504181504 27 0 0.0 0.0 0.00 0.00 0.00 100 1014.6
20260504181003 27 0 0.0 0.0 0.00 0.00 0.00 100 1014.7
20260504180503 26 0 0.0 0.0 0.00 0.00 0.00 100 1014.6
20260504180004 26 0 0.0 0.0 0.00 0.00 0.00 100 1014.8
20260504175504 26 0 0.0 0.0 0.00 0.00 0.00 100 1014.7
20260504175004 26 0 0.0 0.0 0.00 0.00 0.00 100 1014.7
20260504174715 26 0 0.0 0.0 0.00 0.00 0.00 100 1014.7
20260504174217 26 0 0.0 0.0 0.00 0.00 0.00 100 1015.0
20260504173504 26 0 0.0 0.0 0.00 0.00 0.00 100 1015.1
20260504173218 26 0 0.0 0.0 0.00 0.00 0.00 100 1015.2
20260504172504 26 0 0.0 0.0 0.00 0.00 0.00 100 1015.2
20260504172003 26 0 0.0 0.0 0.00 0.00 0.00 100 1015.2
20260504171503 26 0 0.0 0.0 0.00 0.00 0.00 100 1015.3
20260504171004 26 0 0.0 0.0 0.00 0.00 0.00 100 1015.3
20260504170504 26 0 0.0 0.0 0.00 0.00 0.00 100 1015.4
20260504150503 23 0 0.0 0.0 0.00 0.00 0.00 100 1016.1
20260504141004 23 0 0.0 0.0 0.00 0.00 0.00 100 1015.7
20260504140503 23 0 0.0 0.0 0.00 0.00 0.00 100 1015.7
20260504130503 18 0 0.0 0.0 0.00 0.00 0.00 100 1015.8
20260504120214 12 0 0.0 0.0 0.00 0.03 0.00 100 1015.6
20260504110503 12 0 0.0 0.0 0.00 0.03 0.00 100 1015.5
20260504100503 12 0 0.0 0.0 0.00 0.03 0.00 100 1015.6
20260504082004 12 0 0.0 0.0 0.00 0.03 0.00 100 1016.4
20260504081504 12 0 0.0 0.0 0.00 0.03 0.00 100 1016.3
20260504081003 12 0 0.0 0.0 0.00 0.03 0.00 100 1016.5
20260504080504 12 0 0.0 0.0 0.00 0.03 0.00 100 1016.6
20260504050503 12 0 0.0 0.0 0.00 0.03 0.00 100 1018.4
20260504050005 12 0 0.0 0.0 0.00 0.03 0.00 100 1018.4
20260504045503 12 0 0.0 0.0 0.00 0.03 0.03 100 1018.4
20260504045004 12 0 0.0 0.0 0.00 0.03 0.03 100 1018.4
20260504044504 12 0 0.0 0.0 0.00 0.03 0.03 100 1018.5
20260504044216 12 0 0.0 0.0 0.00 0.03 0.03 100 1018.6
20260504043714 12 0 0.0 0.0 0.00 0.03 0.03 100 1018.6
20260504043003 12 0 0.0 0.0 0.00 0.03 0.03 100 1018.6
20260504042715 12 0 0.0 0.0 0.00 0.03 0.03 100 1018.5
20260504042004 12 0 0.0 0.0 0.00 0.03 0.03 100 1018.5
20260504041503 12 0 0.0 0.0 0.00 0.03 0.03 100 1018.4
20260504041004 13 0 0.0 0.0 0.00 0.03 0.03 100 1018.3
20260504040503 13 0 0.0 0.0 0.00 0.03 0.03 100 1018.4
20260504040004 12 0 0.0 0.0 0.00 0.03 0.03 100 1018.5
20260504035503 12 0 0.0 0.0 0.00 0.03 0.03 100 1018.5
20260504035003 12 0 0.0 0.0 0.00 0.03 0.03 100 1018.6
20260504034504 12 0 0.0 0.0 0.00 0.03 0.03 100 1018.6
20260504034216 12 0 0.0 0.0 0.00 0.05 0.03 100 1018.5
20260504033504 13 0 0.0 0.0 0.00 0.05 0.03 100 1018.4
20260504033217 13 0 0.0 0.0 0.00 0.05 0.03 100 1018.5
20260504032504 13 0 0.0 0.0 0.00 0.05 0.03 100 1018.4
20260504032004 13 0 0.0 0.0 0.00 0.05 0.03 100 1018.4
20260504031503 13 0 0.0 0.0 0.00 0.08 0.03 100 1018.4
20260504031003 13 0 0.0 0.0 0.00 0.08 0.03 100 1018.4
20260504030717 13 0 0.0 0.0 0.00 0.08 0.03 100 1018.4
20260504030004 14 0 0.0 0.0 0.00 0.08 0.03 100 1018.3
20260504025504 14 0 0.0 0.0 0.00 0.10 0.03 100 1018.3
20260504025005 14 0 0.0 0.0 0.00 0.10 0.03 100 1018.4
20260504024504 14 0 0.0 0.0 0.00 0.10 0.03 100 1018.5
20260504024217 15 0 0.0 0.0 0.00 0.10 0.03 100 1018.4
20260504023503 15 0 0.0 0.0 0.00 0.13 0.03 100 1018.4
20260504023004 15 0 0.0 0.0 0.00 0.13 0.03 100 1018.4
20260504022504 15 0 0.0 0.0 0.00 0.15 0.03 100 1018.3
20260504022003 15 0 0.0 0.0 0.00 0.15 0.03 100 1018.2
20260504021504 15 0 0.0 0.0 0.00 0.18 0.03 100 1018.2
20260504021003 15 0 0.0 0.0 0.00 0.18 0.03 100 1018.2
20260504020504 15 0 0.0 0.0 0.00 0.18 0.03 100 1018.3
20260504015504 16 0 0.0 0.0 0.00 0.20 0.03 100 1018.3
20260504015003 16 0 0.0 0.0 0.00 0.23 0.03 100 1018.3
20260504014503 16 0 0.0 0.0 0.00 0.23 0.03 100 1018.3
20260504014213 16 0 0.0 0.0 0.00 0.25 0.03 100 1018.3
20260504013504 16 0 0.0 0.0 0.00 0.28 0.03 100 1018.4
20260504013004 16 0 0.0 0.0 0.00 0.28 0.03 100 1018.4
20260504012504 17 0 0.0 0.0 0.00 0.30 0.03 100 1018.3
20260504012003 17 0 0.0 0.0 0.00 0.30 0.03 100 1018.2
20260504011505 17 0 0.0 0.0 0.00 0.33 0.03 100 1018.3
20260504011004 17 0 0.0 0.0 0.00 0.36 0.03 100 1018.2
20260504010713 18 0 0.0 0.0 0.00 0.36 0.03 100 1018.4
20260504010216 18 0 0.0 0.0 0.00 0.38 0.03 100 1018.3
20260504005714 18 0 0.0 0.0 0.00 0.41 0.03 100 1018.3
20260504005004 19 0 0.0 0.0 0.00 0.43 0.03 100 1018.3
20260504004503 20 0 0.0 0.0 0.00 0.46 0.03 100 1018.2
20260504004003 20 0 0.0 0.0 0.00 0.48 0.03 100 1018.3
20260504003504 20 0 0.0 0.0 0.00 0.51 0.03 100 1018.3
20260504003214 21 0 0.0 0.0 0.00 0.51 0.03 100 1018.2
20260504002503 21 0 0.0 0.0 0.00 0.56 0.03 100 1018.2
20260504002004 22 0 0.0 0.0 0.00 0.58 0.03 100 1018.1
20260504001504 22 0 0.0 0.0 0.00 0.61 0.03 100 1018.2
20260504001004 22 0 0.0 0.0 0.00 0.64 0.03 100 1018.2
20260504000503 23 0 0.0 0.0 0.00 0.66 0.03 100 1018.3
20260504000003 23 0 0.0 0.0 0.00 0.69 0.03 100 1018.3
20260503235504 23 0 0.0 0.0 0.00 0.71 0.03 100 1018.2
20260503235213 23 0 0.0 0.0 0.00 0.74 0.03 100 1018.3
20260503234504 24 0 0.0 0.0 0.00 0.76 0.03 100 1018.4
20260503234004 25 0 0.0 0.0 0.00 0.79 0.03 100 1018.5
20260503233504 25 0 0.0 0.0 0.00 0.81 0.03 100 1018.5
20260503233005 24 0 0.0 0.0 0.00 0.84 0.03 100 1018.5
20260503232503 25 0 0.0 0.0 0.00 0.86 0.03 100 1018.6
20260503232004 25 0 0.0 0.0 0.00 0.89 0.03 100 1018.6
20260503231503 25 0 0.0 0.0 0.00 0.89 0.03 100 1018.6
20260503231005 25 0 0.0 0.0 0.00 0.91 0.03 100 1018.7
20260503230715 25 0 0.0 0.0 0.00 0.91 0.03 100 1018.7
20260503230003 25 0 0.0 0.0 0.00 0.94 0.03 100 1018.9
20260503225716 25 0 0.0 0.0 0.00 0.94 0.03 100 1018.9
20260503225004 25 0 0.0 0.0 0.00 0.97 0.03 100 1018.7
20260503224716 25 0 0.0 0.0 0.00 0.97 0.03 100 1018.9
20260503224005 25 0 0.0 0.0 0.00 0.97 0.03 100 1019.0
20260503223504 25 0 0.0 0.0 0.00 0.99 0.03 100 1019.2
20260503223003 25 0 0.0 0.0 0.00 0.99 0.03 100 1019.2
20260503222503 25 0 0.0 0.0 0.00 0.99 0.03 100 1019.1
20260503222003 25 0 0.0 0.0 0.00 0.99 0.03 100 1019.1
20260503221504 25 0 0.0 0.0 0.00 0.99 0.03 100 1019.2
20260503221004 25 0 0.0 0.0 0.00 0.99 0.03 100 1019.1
20260503220503 25 0 0.0 0.0 0.00 0.99 0.03 100 1019.1
20260503220005 25 0 0.0 0.0 0.00 0.99 0.03 100 1019.1
20260503215503 25 0 0.0 0.0 0.00 0.99 0.03 100 1019.3
20260503215004 25 0 0.0 0.0 0.00 0.99 0.03 100 1019.3
20260503214504 25 0 0.0 0.0 0.00 1.02 0.03 100 1019.4
20260503214004 25 0 0.0 0.0 0.00 1.02 0.03 100 1019.4
20260503213504 25 0 0.0 0.0 0.00 1.02 0.03 100 1019.4
20260503213004 25 0 0.0 0.0 0.00 1.02 0.03 100 1019.5
20260503212504 25 0 0.0 0.0 0.00 1.02 0.03 100 1019.6
20260503212004 25 0 0.0 0.0 0.00 1.02 0.03 100 1019.7
20260503211505 25 0 0.0 0.0 0.00 1.02 0.03 100 1019.7
20260503211004 25 0 0.0 0.0 0.00 1.02 0.03 100 1019.8
20260503210504 25 0 0.0 0.0 0.00 1.02 0.03 100 1019.8
20260503210004 25 0 0.0 0.0 0.00 1.02 0.03 100 1019.8
20260503205504 25 0 0.0 0.0 0.00 1.02 0.03 100 1019.9
20260503205004 25 0 0.0 0.0 0.00 1.02 0.03 100 1019.9
20260503204504 25 0 0.0 0.0 0.00 1.02 0.03 100 1019.9
20260503204216 25 0 0.0 0.0 0.00 1.02 0.03 100 1020.0
20260503203505 25 0 0.0 0.0 0.00 1.02 0.03 100 1020.2
20260503203004 25 0 0.0 0.0 0.00 1.02 0.03 100 1020.3
20260503202503 25 0 0.0 0.0 0.00 1.02 0.03 100 1020.4
20260503202003 25 0 0.0 0.0 0.00 1.02 0.03 100 1020.5
20260503201504 25 0 0.0 0.0 0.00 1.02 0.03 100 1020.5
20260503201004 25 0 0.0 0.0 0.00 1.04 0.03 100 1020.6
20260503200505 25 0 0.0 0.0 0.00 1.04 0.03 100 1020.7
20260503200215 25 0 0.0 0.0 0.00 1.04 0.03 100 1020.6
20260503195503 25 0 0.0 0.0 0.00 1.04 0.03 100 1020.8
20260503195004 25 0 0.0 0.0 0.00 1.04 0.03 100 1020.8
20260503194504 25 0 0.0 0.0 0.00 1.04 0.03 100 1020.8
20260503194004 25 0 0.0 0.0 0.00 1.04 0.03 100 1020.8
20260503193504 25 0 0.0 0.0 0.00 1.04 0.03 100 1020.9
20260503193004 25 0 0.0 0.0 0.00 1.04 0.03 100 1021.1
20260503192504 26 0 0.0 0.0 0.00 1.04 0.03 100 1021.1